KOMPSAT-3A

Last updated on Mon Sep 21 2026 00:02:45 GMT+0000 (Coordinated Universal Time)

1 40536U 15014A 26263.58362078 .00019334 00000+0 23786-3 0 9995 2 40536 97.6940 262.3203 0049549 183.8792 176.2087 15.58771178636659
UTC large
Height (km)
Speed (km/s)
/
Latitude / Longitude
Inclination (degrees)
Orbital Period (minutes)
Azimuth
Elevation
Range (km)
Doppler Factor

Next 0 passes for location: London (51.5072 / 0.1276)

No passes found over London.
KOMPSAT-3A